Belvedere, Italy

2:36 PM CET on February 21, 2017 (GMT +0100)
Urbe

Weather History for LIRU - April, 2014

Change the Weather History Date:

Saturday, April 19, 2014

  Actual Average Record
Temperature  
Mean Temperature 56 °F -  
Max Temperature 60 °F 72 °F 77 °F (2013)
Min Temperature 53 °F 49 °F 35 °F (1997)
Degree Days  
Heating Degree Days 8    
Growing Degree Days 6 (Base 50)    
Moisture  
Dew Point 52 °F    
Average Humidity 85    
Maximum Humidity 100    
Minimum Humidity 77    
Precipitation  
Precipitation 0.00 in 0.07 in - ()
Sea Level Pressure  
Sea Level Pressure 29.68 in    
Wind  
Wind Speed 10 mph ()    
Max Wind Speed 20 mph    
Max Gust Speed 29 mph    
Visibility 5.0 miles    
Events Rain , Thunderstorm    
Averages and records for this station are not official NWS values.
T = Trace of Precipitation, MM = Missing Value Source: Averaged Metar Reports

Daily Weather History Graph

Daily Weather History Graph

Search for Another Location

Airport or City:

Trip Planner

Search our weather history database for the weather conditions in past years. The results will help you decide how hot, cold, wet, or windy it might be!

Date:

Astronomy

Apr. 19, 2014 Rise Set
Actual Time 6:23 AM CEST 7:55 PM CEST
Civil Twilight 5:54 AM CEST 8:24 PM CEST
Nautical Twilight 5:19 AM CEST 9:00 PM CEST
Astronomical Twilight 4:41 AM CEST 9:37 PM CEST
Moon No Moon Rise 9:23 AM CEST (4/19)
Length of Visible Light 14h 30m
Length of Day
13h 31m
Waning Gibbous, 81% of the Moon is Illuminated
Apr 19
Waning Gibbous
Apr 22
Last Quarter
Apr 29
New
May 7
First Quarter
May 14
Full

Hourly Weather History & Observations

Time (CEST) Temp. Dew Point Humidity Pressure Visibility Wind Dir Wind Speed Gust Speed Precip Events Conditions
7:22 AM 53.6 °F 50.0 °F 88% 29.68 in 5.0 mi ESE 6.9 mph - N/A Rain Light Rain
7:50 AM 53.6 °F 48.2 °F 82% 29.68 in 5.0 mi ESE 10.4 mph - N/A Rain Light Rain
8:50 AM 55.4 °F 48.2 °F 77% 29.68 in - ESE 10.4 mph - N/A   Clear
9:50 AM 55.4 °F 48.2 °F 77% 29.71 in 6.2 mi SE 12.7 mph - N/A   Scattered Clouds
10:50 AM 55.4 °F 48.2 °F 77% 29.71 in 6.2 mi SE 19.6 mph - N/A   Scattered Clouds
11:50 AM 55.4 °F 50.0 °F 82% 29.71 in 6.2 mi ESE 15.0 mph - N/A   Mostly Cloudy
12:07 PM 55.4 °F 51.8 °F 88% 29.71 in 3.1 mi SE 16.1 mph - N/A   Drizzle
12:17 PM 55.4 °F 51.8 °F 88% 29.71 in 5.0 mi SE 11.5 mph - N/A   Scattered Clouds
12:50 PM 57.2 °F 51.8 °F 82% 29.68 in 6.2 mi SE 11.5 mph - N/A   Partly Cloudy
1:50 PM 59.0 °F 51.8 °F 77% 29.68 in 6.2 mi SSE 16.1 mph 28.8 mph N/A   Scattered Clouds
2:50 PM 59.0 °F 51.8 °F 77% 29.71 in 3.1 mi South 12.7 mph - N/A Rain Light Rain
3:10 PM 59.0 °F 53.6 °F 82% 29.68 in 6.2 mi East 12.7 mph - N/A   Scattered Clouds
3:25 PM 57.2 °F 53.6 °F 88% 29.68 in 5.0 mi ESE 8.1 mph - N/A Rain Light Rain
3:50 PM 55.4 °F 51.8 °F 88% 29.68 in 6.2 mi East 5.8 mph - N/A   Mostly Cloudy
3:55 PM 55.4 °F 53.6 °F 94% 29.68 in 3.1 mi ESE 11.5 mph - N/A Rain Heavy Rain
4:50 PM 57.2 °F 53.6 °F 88% 29.65 in 6.2 mi SE 13.8 mph - N/A   Mostly Cloudy
5:50 PM 60.8 °F 53.6 °F 77% 29.65 in 6.2 mi South 13.8 mph - N/A   Mostly Cloudy
6:50 PM 59.0 °F 55.4 °F 88% 29.65 in 6.2 mi South 12.7 mph - N/A   Mostly Cloudy
7:50 PM 59.0 °F 55.4 °F 88% 29.62 in 5.0 mi South 17.3 mph - N/A   Mostly Cloudy
8:15 PM 59.0 °F 55.4 °F 88% 29.62 in 5.0 mi South 13.8 mph - N/A Rain , Thunderstorm Thunderstorms and Rain
8:50 PM 59.0 °F 55.4 °F 88% 29.65 in 1.9 mi SSW 4.6 mph - N/A Rain , Thunderstorm Thunderstorms and Rain
9:50 PM 53.6 °F 53.6 °F 100% 29.68 in 1.9 mi Variable 3.5 mph - N/A Rain Heavy Rain